926  
ASUS44 KCRP 240310  
HRRCRP  
 
SOUTH TEXAS REGIONAL WEATHER ROUNDUP  
NATIONAL WEATHER SERVICE CORPUS CHRISTI TX  
900 PM CST FRI FEB 23 2018  
 
TXZ229>244-240400-   
..CORPUS CHRISTI AREA OBSERVATIONS
 
 
 
CITY SKY/WX TMP DP RH WIND PRES REMARKS  
CORPUS CHRISTI CLOUDY 72 71 97 SE18G26 29.99R  
NAS CORPUS CHR CLOUDY 70 70 100 SE12 29.99R FOG  
ROCKPORT CLOUDY 69 68 96 SE10 30.00S FOG  
KINGSVILLE ARP FAIR 70 70 100 SE8 29.97S  
KINGSVILLE NAS MOCLDY 72 69 90 SE15G23 29.97S  
ALICE CLOUDY 69 67 93 SE13G22 29.96S  

 
   
..VICTORIA AREA OBSERVATIONS
 
 
 
CITY SKY/WX TMP DP RH WIND PRES REMARKS  
PORT LAVACA CLOUDY 69 67 95 SE8 30.02S FOG  
VICTORIA CLOUDY 71 68 90 SE16 30.01S  
BEEVILLE CLOUDY 71 68 92 SE17G23 29.99R  
PLEASANTON CLOUDY 71 65 83 S10G20 29.99R  
SAN ANTONIO CLOUDY 68 64 87 CALM 30.01R  

 
   
..LAREDO AREA OBSERVATIONS
 
 
 
CITY SKY/WX TMP DP RH WIND PRES REMARKS  
LAREDO FOG 63 61 94 N6 29.94F VSB 3/4  
COTULLA MOCLDY 62 61 96 NE6 29.96S FOG  
DEL RIO CLOUDY 60 59 96 SE6 29.97F  
MCALLEN CLOUDY 76 71 85 SE18G25 29.96R  
HEBBRONVILLE CLEAR 70 63 78 S6 29.96S HAZE  

 
   
..OTHER TEXAS OBSERVATIONS
 
 
 
CITY SKY/WX TMP DP RH WIND PRES REMARKS  
BROWNSVILLE MOCLDY 75 72 90 SE18G26 29.98R  
HOUSTON MOCLDY 71 69 93 SE9 30.05S  
COL. STATION CLEAR 64 62 93 SE5 30.03R  
AUSTIN CLOUDY 60 60 100 NE3 30.00S  
WACO CLOUDY 55 53 93 N7 30.04R FOG  
FORT WORTH LGT RAIN 49 47 93 NW7 30.03F FOG  
WICHITA FALLS CLOUDY 38 37 97 N5 30.05F FOG  
LUBBOCK DRZL/FOG 40 40 100 SE18 29.95S VSB 1/4 WCI 31  
EL PASO CLEAR 61 4 10 SW12 29.92R  

 
   
..MARINE OBSERVATIONS
 
 
 
STATION/POSITION TIME SKY/WX TEMP WIND PRES VSBY WAVE SWELL  
AIR SEA DIR/SP/G HT/PER HT/PER  
(UTC) (F) (DEG/KT/KT) (MB) (MI) (FT/S) (FT/S)  
PORT ARANSAS NOT AVBL  
BUOY 90 E PORT A 0250 74 74 130/ 16/ 17 1017.2R 4/ 8 2/ 8  
BUOY 200 E PT IS 0250 74 74 140/ 14/ 16 1019.1R 4/ 7 3/ 7  
BUOY 15 E GALVES 0150 66 63 130/ 8/ 10 1018.3 2/ 7 2/ 7  

 
 
 
CLICK HERE TO GO TO PREVIOUS BULLETINS.

The Nexlab TX Page Main Text Page